Total_Precipitation_Accumulation
0.09 0.21 0.51 0.71 0.75 0.73 0.72 0.70 0.66 0.61 0.61 0.66 0.75 0.83 0.86 0.82 0.78 0.77 0.76 0.77 0.80 0.83 0.90 1.00 1.00 0.97 0.92 0.88 0.79 0.72 0.69 0.68 0.71 0.68 0.72 0.79 0.81 0.76 0.68 0.61 0.48 0.54 0.81
0.08 0.21 0.49 0.64 0.71 0.75 0.74 0.70 0.64 0.58 0.59 0.64 0.72 0.77 0.82 0.81 0.79 0.81 0.80 0.81 0.84 0.87 0.95 1.03 1.03 0.99 0.97 0.85 0.74 0.64 0.59 0.53 0.53 0.50 0.49 0.51 0.69 0.75 0.69 0.68 0.63 0.82 0.95
0.08 0.20 0.41 0.60 0.69 0.75 0.76 0.70 0.64 0.63 0.64 0.69 0.73 0.74 0.74 0.76 0.79 0.86 0.89 0.86 0.86 0.85 0.86 0.93 0.99 0.97 0.92 0.83 0.71 0.61 0.55 0.47 0.40 0.38 0.38 0.35 0.58 0.85 0.81 0.80 0.77 0.98 0.98
0.09 0.18 0.33 0.57 0.68 0.75 0.77 0.74 0.73 0.77 0.76 0.80 0.82 0.78 0.74 0.76 0.81 0.86 0.86 0.87 0.87 0.85 0.82 0.83 0.85 0.87 0.75 0.64 0.64 0.62 0.58 0.49 0.36 0.31 0.22 0.24 0.53 0.90 0.94 0.86 0.83 0.89 0.94
0.13 0.20 0.37 0.60 0.74 0.77 0.82 0.81 0.79 0.82 0.88 0.90 0.88 0.86 0.86 0.87 0.86 0.88 0.87 0.86 0.83 0.82 0.80 0.80 0.77 0.75 0.72 0.65 0.63 0.62 0.58 0.48 0.36 0.26 0.16 0.20 0.44 0.85 0.85 0.81 0.77 0.81 0.86
0.19 0.25 0.42 0.62 0.78 0.83 0.88 0.87 0.86 0.88 0.92 0.95 0.91 0.88 0.89 0.97 0.96 0.88 0.84 0.85 0.80 0.77 0.78 0.81 0.77 0.75 0.69 0.64 0.65 0.68 0.64 0.55 0.37 0.23 0.19 0.20 0.32 0.64 0.80 0.86 0.88 0.85 0.79
0.27 0.32 0.48 0.68 0.84 0.92 0.98 1.02 1.02 1.02 1.01 0.98 0.95 0.90 0.89 0.91 0.95 0.92 0.82 0.80 0.77 0.75 0.78 0.80 0.77 0.76 0.74 0.67 0.66 0.70 0.74 0.61 0.39 0.37 0.32 0.30 0.38 0.62 0.78 0.90 0.93 0.88 0.88
0.33 0.41 0.59 0.86 0.97 1.02 1.07 1.05 1.12 1.16 1.17 1.13 1.05 0.98 0.96 0.94 0.92 0.93 0.83 0.81 0.82 0.78 0.73 0.72 0.74 0.71 0.69 0.68 0.68 0.69 0.73 0.57 0.43 0.45 0.52 0.49 0.55 0.73 0.81 0.87 0.89 0.90 0.94
0.35 0.47 0.66 0.90 1.03 1.17 1.18 1.12 1.14 1.16 1.22 1.20 1.13 1.07 1.03 0.97 0.92 0.90 0.87 0.81 0.80 0.83 0.78 0.69 0.68 0.71 0.63 0.63 0.64 0.63 0.62 0.55 0.54 0.62 0.59 0.69 0.70 0.87 0.94 0.90 0.89 0.95 0.97
0.44 0.57 0.74 0.92 1.04 1.16 1.25 1.19 1.13 1.14 1.17 1.23 1.18 1.12 1.07 1.04 1.01 0.94 0.83 0.87 0.84 0.80 0.83 0.77 0.71 0.75 0.73 0.64 0.60 0.58 0.54 0.50 0.48 0.54 0.67 0.65 0.74 1.01 1.12 1.01 0.92 0.92 0.98
0.59 0.72 0.85 0.97 1.09 1.22 1.29 1.23 1.24 1.23 1.25 1.30 1.28 1.26 1.20 1.16 1.14 1.05 0.87 0.85 0.90 0.87 0.85 0.84 0.78 0.77 0.79 0.67 0.60 0.57 0.53 0.42 0.44 0.54 0.60 0.60 0.75 1.04 1.27 1.17 1.06 0.96 0.97
0.62 0.78 0.91 1.01 1.15 1.33 1.40 1.40 1.46 1.36 1.30 1.33 1.24 1.23 1.26 1.24 1.28 1.17 1.08 0.95 0.93 0.95 0.95 0.93 0.88 0.85 0.81 0.71 0.62 0.57 0.45 0.35 0.34 0.36 0.42 0.52 0.66 0.93 1.26 1.32 1.25 1.15 1.11
0.64 0.78 0.94 1.08 1.24 1.43 1.46 1.44 1.44 1.43 1.32 1.35 1.34 1.25 1.23 1.30 1.26 1.30 1.26 1.25 1.18 1.11 1.08 1.07 1.05 0.95 0.88 0.81 0.72 0.63 0.48 0.43 0.39 0.33 0.32 0.40 0.51 0.75 1.03 1.21 1.39 1.39 1.39
0.73 0.84 0.98 1.15 1.35 1.53 1.56 1.57 1.48 1.39 1.31 1.25 1.35 1.38 1.33 1.27 1.17 1.10 1.10 1.08 1.09 1.08 1.08 1.10 1.07 0.99 0.96 0.91 0.81 0.69 0.62 0.56 0.48 0.44 0.39 0.41 0.44 0.62 0.89 1.08 1.27 1.47 1.60
0.79 0.90 1.00 1.15 1.30 1.53 1.77 1.74 1.69 1.54 1.40 1.33 1.36 1.39 1.36 1.30 1.21 1.10 1.02 1.05 1.01 0.97 0.98 1.01 0.95 0.89 0.88 0.85 0.83 0.79 0.74 0.63 0.55 0.53 0.49 0.49 0.47 0.52 0.74 0.95 1.14 1.39 1.64
0.84 0.96 1.07 1.20 1.28 1.47 1.72 1.82 1.79 1.70 1.61 1.57 1.44 1.38 1.40 1.40 1.32 1.22 1.08 1.04 1.03 0.99 0.99 0.96 0.93 0.86 0.81 0.75 0.70 0.70 0.75 0.72 0.64 0.59 0.52 0.51 0.50 0.51 0.63 0.83 1.07 1.32 1.60
0.92 1.03 1.18 1.30 1.42 1.48 1.57 1.81 1.86 1.84 1.76 1.71 1.56 1.51 1.53 1.49 1.47 1.42 1.29 1.13 1.02 0.97 1.00 1.03 0.99 0.94 0.86 0.76 0.68 0.66 0.66 0.66 0.64 0.61 0.55 0.52 0.53 0.53 0.58 0.74 0.95 1.17 1.46
0.99 1.07 1.27 1.40 1.50 1.53 1.54 1.73 1.84 1.89 1.93 1.88 1.82 1.72 1.69 1.67 1.61 1.57 1.50 1.37 1.24 1.11 1.04 1.03 0.99 0.94 0.89 0.82 0.76 0.69 0.65 0.62 0.58 0.55 0.53 0.52 0.54 0.54 0.56 0.66 0.79 1.04 1.28
0.94 1.08 1.31 1.43 1.50 1.58 1.59 1.71 1.88 1.88 1.90 1.97 2.02 1.94 1.87 1.87 1.79 1.70 1.61 1.57 1.54 1.42 1.24 1.11 1.05 0.96 0.88 0.83 0.81 0.79 0.73 0.68 0.64 0.61 0.55 0.50 0.49 0.51 0.55 0.59 0.67 0.84 1.05
0.95 1.12 1.34 1.53 1.61 1.64 1.72 1.72 1.88 2.03 1.90 1.80 1.88 1.94 1.95 1.99 1.95 1.90 1.78 1.67 1.70 1.64 1.52 1.35 1.22 1.10 0.98 0.89 0.89 0.88 0.84 0.79 0.72 0.64 0.60 0.56 0.52 0.51 0.55 0.58 0.59 0.66 0.83
1.00 1.12 1.30 1.49 1.61 1.65 1.69 1.69 1.64 1.79 1.89 1.76 1.62 1.76 1.94 2.05 2.16 2.17 2.01 1.90 1.84 1.75 1.57 1.48 1.44 1.35 1.21 1.08 1.07 1.09 1.00 0.88 0.85 0.73 0.63 0.57 0.55 0.51 0.52 0.58 0.61 0.62 0.71
1.00 1.07 1.24 1.47 1.57 1.55 1.52 1.59 1.62 1.65 1.72 1.79 1.71 1.67 1.77 2.00 2.21 2.40 2.31 2.13 2.01 1.91 1.80 1.63 1.55 1.55 1.47 1.27 1.16 1.22 1.26 1.20 1.01 0.83 0.70 0.60 0.57 0.55 0.54 0.54 0.60 0.62 0.64
1.00 1.06 1.09 1.32 1.60 1.62 1.59 1.70 1.76 1.86 1.89 1.87 1.78 1.72 1.73 1.79 1.92 2.06 2.17 2.08 2.08 2.04 1.97 1.84 1.68 1.63 1.66 1.52 1.28 1.34 1.44 1.30 1.04 0.89 0.78 0.68 0.60 0.59 0.57 0.55 0.57 0.61 0.64
0.98 1.17 1.18 1.25 1.49 1.70 1.69 1.67 1.67 1.75 1.75 1.74 1.67 1.60 1.69 1.85 1.89 1.90 1.97 2.02 1.90 1.84 1.80 1.80 1.76 1.64 1.67 1.70 1.52 1.30 1.21 1.16 1.21 1.10 0.88 0.80 0.77 0.70 0.64 0.58 0.56 0.61 0.65
1.04 1.23 1.32 1.36 1.38 1.58 1.65 1.60 1.58 1.59 1.63 1.72 1.73 1.65 1.61 1.75 1.92 1.98 1.95 1.96 1.99 1.87 1.72 1.66 1.71 1.73 1.68 1.65 1.58 1.43 1.24 1.05 1.01 1.17 1.03 0.89 0.90 0.87 0.80 0.73 0.68 0.68 0.70
1.12 1.28 1.39 1.46 1.38 1.43 1.65 1.64 1.52 1.49 1.50 1.59 1.70 1.77 1.74 1.69 1.77 1.89 1.97 1.93 1.90 1.92 1.88 1.72 1.65 1.70 1.67 1.62 1.57 1.50 1.42 1.32 1.13 1.10 1.07 0.87 0.85 0.83 0.86 0.90 0.88 0.85 0.84